EW8945 Weather Reports


Display with metric or nautical units.
time (UTC)temp
F
wind
direction
speed
MPH
gust
MPH
rain 1hr
in
rain 24hr
in
rain mn
in
humidity
%
barometer
mb
20260506200621 70 319 4.0 11.0 0.00 0.00 0.00 60 1018.3
20260506200131 71 294 3.0 8.0 0.00 0.00 0.00 60 1018.3
20260506195622 70 319 4.0 11.0 0.00 0.00 0.00 63 1018.4
20260506195131 70 315 5.0 11.0 0.00 0.00 0.00 60 1018.4
20260506194624 70 54 4.0 9.0 0.00 0.00 0.00 63 1018.4
20260506194138 70 317 4.0 9.0 0.00 0.00 0.00 64 1018.5
20260506194132 70 15 3.0 9.0 0.00 0.00 0.00 60 1018.5
20260506193736 70 89 5.0 9.0 0.00 0.00 0.00 64 1018.5
20260506193131 70 25 5.0 9.0 0.00 0.00 0.00 64 1018.5
20260506192737 69 52 4.0 9.0 0.00 0.00 0.00 64 1018.6
20260506192248 70 73 4.0 10.0 0.00 0.00 0.00 65 1018.7
20260506191735 69 309 4.0 10.0 0.00 0.00 0.00 68 1018.7
20260506190616 67 45 4.0 10.0 0.00 0.00 0.00 66 1018.8
20260506190128 67 351 3.0 10.0 0.00 0.00 0.00 66 1018.8
20260506185616 67 75 3.0 11.0 0.00 0.00 0.00 66 1018.8
20260506185129 68 355 3.0 11.0 0.00 0.00 0.00 68 1018.9
20260506184628 68 292 4.0 10.0 0.00 0.00 0.00 66 1018.9
20260506184613 67 330 3.0 7.0 0.00 0.00 0.00 66 1018.8
20260506183613 67 355 4.0 10.0 0.00 0.00 0.00 68 1018.9
20260506183124 67 327 3.0 8.0 0.00 0.00 0.00 70 1019.0
20260506182633 65 300 3.0 7.0 0.00 0.00 0.00 71 1019.1
20260506182613 66 355 3.0 8.0 0.00 0.00 0.00 72 1019.1
20260506182124 65 241 3.0 6.0 0.00 0.00 0.00 69 1019.1
20260506181124 65 329 3.0 7.0 0.00 0.00 0.00 68 1019.1
20260506180611 65 263 3.0 9.0 0.00 0.00 0.00 72 1019.1
20260506180125 65 260 3.0 9.0 0.00 0.00 0.00 72 1019.1
20260506175612 64 135 2.0 5.0 0.00 0.00 0.00 71 1019.2
20260506175125 64 277 3.0 9.0 0.00 0.00 0.00 71 1019.1
20260506174612 63 292 4.0 9.0 0.00 0.00 0.00 70 1019.2
20260506174124 63 320 3.0 8.0 0.00 0.00 0.00 72 1019.2
20260506173610 63 264 3.0 6.0 0.00 0.00 0.00 73 1019.2
20260506173121 62 355 3.0 6.0 0.00 0.00 0.00 71 1019.2
20260506172609 63 341 2.0 6.0 0.00 0.00 0.00 74 1019.2
20260506172123 62 332 2.0 7.0 0.00 0.00 0.00 74 1019.3
20260506171608 62 346 2.0 7.0 0.00 0.00 0.00 75 1019.3
20260506171119 62 309 3.0 8.0 0.00 0.00 0.00 78 1019.4
20260506170609 62 300 4.0 8.0 0.00 0.00 0.00 77 1019.4
20260506170127 61 257 3.0 6.0 0.00 0.00 0.00 77 1019.4
20260506170119 61 251 3.0 8.0 0.00 0.00 0.00 75 1019.3
20260506165105 61 286 2.0 5.0 0.00 0.00 0.00 78 1019.4
20260506164608 60 322 2.0 6.0 0.00 0.00 0.00 78 1019.4
20260506164603 60 238 2.0 6.0 0.00 0.00 0.00 79 1019.4
20260506163609 60 335 2.0 5.0 0.00 0.00 0.00 78 1019.5
20260506163605 60 336 2.0 5.0 0.00 0.00 0.00 78 1019.4
20260506162609 60 263 2.0 5.0 0.00 0.00 0.00 79 1019.4
20260506162604 60 258 2.0 5.0 0.00 0.00 0.00 78 1019.4
20260506161610 59 340 3.0 8.0 0.00 0.00 0.00 79 1019.4
20260506161605 60 250 2.0 6.0 0.00 0.00 0.00 79 1019.4
20260506160601 60 300 3.0 9.0 0.00 0.00 0.00 80 1019.4
20260506160103 59 319 2.0 9.0 0.00 0.00 0.00 80 1019.4
20260506155601 59 308 2.0 6.0 0.00 0.00 0.00 80 1019.4
20260506155102 59 273 3.0 6.0 0.00 0.00 0.00 81 1019.4
20260506154602 58 288 3.0 7.0 0.00 0.00 0.00 81 1019.3
20260506154101 58 284 2.0 7.0 0.00 0.00 0.00 81 1019.3
20260506153601 58 283 2.0 6.0 0.00 0.00 0.00 81 1019.4
20260506153101 58 285 2.0 5.0 0.00 0.00 0.00 82 1019.4
20260506152607 58 294 2.0 6.0 0.00 0.00 0.00 83 1019.3
20260506152601 58 296 2.0 6.0 0.00 0.00 0.00 82 1019.4
20260506151620 57 301 3.0 5.0 0.00 0.00 0.00 83 1019.3
20260506151559 57 267 3.0 6.0 0.00 0.00 0.00 83 1019.3
20260506151100 57 292 3.0 6.0 0.00 0.00 0.00 83 1019.3
20260506150100 57 290 2.0 6.0 0.00 0.00 0.00 83 1019.4
20260506145559 57 273 2.0 6.0 0.00 0.00 0.00 83 1019.4
20260506145118 57 280 2.0 4.0 0.00 0.00 0.00 83 1019.4
20260506145059 57 282 2.0 4.0 0.00 0.00 0.00 83 1019.4
20260506144119 56 334 2.0 4.0 0.00 0.00 0.00 83 1019.2
20260506144059 56 297 2.0 4.0 0.00 0.00 0.00 83 1019.3
20260506143121 56 291 2.0 4.0 0.00 0.00 0.00 84 1019.3
20260506143100 56 329 2.0 4.0 0.00 0.00 0.00 83 1019.2
20260506142057 56 281 2.0 6.0 0.00 0.00 0.00 84 1019.2
20260506141557 56 299 2.0 6.0 0.00 0.00 0.00 84 1019.2
20260506141057 56 300 3.0 4.0 0.00 0.00 0.00 84 1019.1
20260506140604 56 308 3.0 8.0 0.00 0.00 0.00 84 1019.1
20260506140558 56 308 3.0 7.0 0.00 0.00 0.00 84 1019.1
20260506135557 56 296 3.0 8.0 0.00 0.00 0.00 84 1019.0
20260506135058 56 274 3.0 5.0 0.00 0.00 0.00 84 1018.9
20260506134600 56 300 3.0 7.0 0.00 0.00 0.00 84 1018.7
20260506134554 56 295 3.0 7.0 0.00 0.00 0.00 84 1018.8
20260506134226 56 281 3.0 7.0 0.00 0.00 0.00 84 1018.6
20260506133711 56 288 2.0 6.0 0.00 0.00 0.00 84 1018.6
20260506132556 56 280 2.0 4.0 0.00 0.00 0.00 84 1018.5
20260506132056 56 280 2.0 4.0 0.00 0.00 0.00 84 1018.4
20260506131557 56 288 2.0 4.0 0.00 0.00 0.00 84 1018.4
20260506131115 56 329 2.0 4.0 0.00 0.00 0.00 84 1018.3
20260506131055 56 330 2.0 4.0 0.00 0.00 0.00 84 1018.3
20260506130557 56 329 2.0 4.0 0.00 0.00 0.00 84 1018.4
20260506125553 56 329 2.0 4.0 0.00 0.00 0.00 84 1018.3
20260506125053 56 329 2.0 4.0 0.00 0.00 0.00 84 1018.3
20260506124553 56 329 1.0 3.0 0.00 0.00 0.00 83 1018.2
20260506124114 56 330 2.0 4.0 0.00 0.00 0.00 83 1018.2
20260506124054 56 329 2.0 3.0 0.00 0.00 0.00 83 1018.2
20260506123053 56 329 2.0 4.0 0.00 0.00 0.00 83 1018.2
20260506122553 56 329 2.0 4.0 0.00 0.00 0.00 83 1018.2
20260506122114 56 329 1.0 4.0 0.00 0.00 0.00 83 1018.2
20260506122053 56 329 2.0 4.0 0.00 0.00 0.00 83 1018.2
20260506121053 56 329 1.0 3.0 0.00 0.00 0.00 83 1018.2
20260506120555 56 329 1.0 3.0 0.00 0.00 0.00 83 1018.1
20260506120551 56 329 1.0 3.0 0.00 0.00 0.00 83 1018.0
20260506115550 56 329 1.0 3.0 0.00 0.00 0.00 83 1018.0
20260506115049 56 329 2.0 3.0 0.00 0.00 0.00 83 1018.0
20260506114550 56 329 1.0 3.0 0.00 0.00 0.00 83 1018.0
20260506114048 56 329 2.0 3.0 0.00 0.00 0.00 83 1018.0
20260506113549 56 329 2.0 3.0 0.00 0.00 0.00 83 1017.9
20260506113543 57 329 2.0 4.0 0.00 0.00 0.00 83 1017.8
20260506112548 57 329 1.0 3.0 0.00 0.00 0.00 83 1017.8
20260506112542 57 329 2.0 4.0 0.00 0.00 0.00 83 1017.8
20260506111544 57 329 1.0 3.0 0.00 0.00 0.00 83 1017.8
20260506111043 57 329 1.0 3.0 0.00 0.00 0.00 83 1017.9
20260506110542 57 329 0.0 2.0 0.00 0.00 0.00 83 1017.8
20260506110044 57 329 0.0 1.0 0.00 0.00 0.00 83 1017.7
20260506105544 57 330 0.0 1.0 0.00 0.00 0.00 83 1017.7
20260506105043 57 329 1.0 2.0 0.00 0.00 0.00 83 1017.6
20260506104543 57 329 1.0 2.0 0.00 0.00 0.00 83 1017.6
20260506104042 57 329 1.0 3.0 0.00 0.00 0.00 83 1017.6
20260506103544 57 329 1.0 3.0 0.00 0.00 0.00 83 1017.6
20260506103043 57 329 1.0 3.0 0.00 0.00 0.00 83 1017.6
20260506102543 57 329 1.0 2.0 0.00 0.00 0.00 83 1017.6
20260506102042 57 329 0.0 2.0 0.00 0.00 0.00 83 1017.6
20260506101543 57 330 0.0 0.0 0.00 0.00 0.00 83 1017.6
20260506101043 57 329 0.0 0.0 0.00 0.00 0.00 83 1017.7
20260506100542 57 329 0.0 0.0 0.00 0.00 0.00 83 1017.7
20260506100050 57 329 1.0 2.0 0.00 0.00 0.00 83 1017.6
20260506100044 57 329 0.0 2.0 0.00 0.00 0.00 83 1017.6
20260506095043 57 329 2.0 3.0 0.00 0.00 0.00 83 1017.6
20260506094544 57 329 2.0 3.0 0.00 0.00 0.00 83 1017.6
20260506094050 57 329 1.0 2.0 0.00 0.00 0.00 82 1017.7
20260506094044 57 329 1.0 2.0 0.00 0.00 0.00 83 1017.6
20260506093543 57 329 1.0 2.0 0.00 0.00 0.00 82 1017.6
20260506093041 57 329 1.0 3.0 0.00 0.00 0.00 82 1017.7
20260506092041 57 329 1.0 3.0 0.00 0.00 0.00 81 1017.8
20260506091542 57 329 1.0 3.0 0.00 0.00 0.00 81 1017.7
20260506091038 57 330 1.0 3.0 0.00 0.00 0.00 81 1017.7
20260506090539 57 329 1.0 3.0 0.00 0.00 0.00 81 1017.6
20260506090038 57 329 1.0 3.0 0.00 0.00 0.00 81 1017.6
20260506085539 57 329 1.0 3.0 0.00 0.00 0.00 81 1017.6
20260506085036 57 329 1.0 3.0 0.00 0.00 0.00 81 1017.6
20260506084537 57 329 2.0 5.0 0.00 0.00 0.00 81 1017.6
20260506084036 57 330 3.0 5.0 0.00 0.00 0.00 81 1017.6
20260506083537 57 297 2.0 4.0 0.00 0.00 0.00 81 1017.6
20260506083036 57 292 1.0 4.0 0.00 0.00 0.00 80 1017.6
20260506082539 57 355 3.0 4.0 0.00 0.00 0.00 80 1017.6
20260506082534 57 335 2.0 4.0 0.00 0.00 0.00 80 1017.6
20260506081536 57 340 2.0 5.0 0.00 0.00 0.00 80 1017.7
20260506081040 57 309 1.0 3.0 0.00 0.00 0.00 80 1017.6
20260506081035 57 348 2.0 5.0 0.00 0.00 0.00 80 1017.7
20260506073033 58 28 2.0 4.0 0.00 0.00 0.00 80 1017.4
20260506072534 58 355 2.0 4.0 0.00 0.00 0.00 80 1017.3
20260506072032 58 20 2.0 4.0 0.00 0.00 0.00 80 1017.3
20260506071532 58 19 2.0 5.0 0.00 0.00 0.00 80 1017.3
20260506071031 58 10 2.0 5.0 0.00 0.00 0.00 80 1017.2
20260506070530 58 346 2.0 5.0 0.00 0.00 0.00 80 1017.2
20260506061533 58 350 2.0 5.0 0.00 0.00 0.00 77 1016.8
20260506061526 58 322 2.0 4.0 0.00 0.00 0.00 78 1016.9
20260506060528 58 0 2.0 5.0 0.00 0.00 0.00 77 1016.7
20260506051028 59 319 1.0 4.0 0.00 0.00 0.00 76 1016.4
20260506051022 59 316 2.0 5.0 0.00 0.00 0.00 76 1016.4
20260506045023 59 0 2.0 4.0 0.00 0.00 0.00 76 1016.2
20260506044524 59 333 2.0 4.0 0.00 0.00 0.00 76 1016.2
20260506044519 59 323 2.0 4.0 0.00 0.00 0.00 75 1016.1
20260506043523 59 343 2.0 3.0 0.00 0.00 0.00 76 1016.1
20260506043518 59 343 1.0 3.0 0.00 0.00 0.00 75 1016.1
20260506043146 59 313 1.0 3.0 0.00 0.00 0.00 75 1016.0
20260506042517 59 313 1.0 3.0 0.00 0.00 0.00 75 1016.1
20260506041522 59 313 2.0 4.0 0.00 0.00 0.00 75 1015.8
20260506041518 59 313 1.0 3.0 0.00 0.00 0.00 75 1015.9
20260506041147 59 313 2.0 4.0 0.00 0.00 0.00 76 1015.8
20260506040018 59 331 2.0 4.0 0.00 0.00 0.00 75 1015.7
20260506035518 59 327 2.0 4.0 0.00 0.00 0.00 75 1015.7
20260506035016 59 349 2.0 4.0 0.00 0.00 0.00 75 1015.6
20260506034513 59 305 2.0 5.0 0.00 0.00 0.00 75 1015.5
20260506034018 59 317 2.0 5.0 0.00 0.00 0.00 75 1015.4
20260506034012 59 298 2.0 5.0 0.00 0.00 0.00 75 1015.5
20260506033013 59 315 3.0 5.0 0.00 0.00 0.00 75 1015.3
20260506032512 59 334 3.0 5.0 0.00 0.00 0.00 75 1015.2
20260506032012 59 355 2.0 5.0 0.00 0.00 0.00 74 1015.1
20260506031513 60 296 2.0 5.0 0.00 0.00 0.00 74 1015.1
20260506031014 60 319 2.0 5.0 0.00 0.00 0.00 74 1015.1
20260506030512 60 309 2.0 5.0 0.00 0.00 0.00 74 1015.0
20260506030015 60 343 2.0 5.0 0.00 0.00 0.00 74 1015.0
20260506025514 60 355 2.0 5.0 0.00 0.00 0.00 74 1014.9
20260506025014 60 323 3.0 5.0 0.00 0.00 0.00 74 1014.9
20260506024512 60 313 2.0 5.0 0.00 0.00 0.00 74 1014.7
20260506024018 60 348 2.0 4.0 0.00 0.00 0.00 74 1014.6
20260506024014 60 345 2.0 4.0 0.00 0.00 0.00 74 1014.7
20260506023018 60 355 2.0 3.0 0.00 0.00 0.00 74 1014.7
20260506023013 60 355 2.0 4.0 0.00 0.00 0.00 74 1014.6
20260506022013 60 320 2.0 5.0 0.00 0.00 0.00 75 1014.5
20260506021513 60 327 2.0 5.0 0.00 0.00 0.00 75 1014.5
20260506021014 60 300 2.0 5.0 0.00 0.00 0.00 75 1014.5
20260506020514 60 298 2.0 5.0 0.00 0.00 0.00 75 1014.6
20260506020019 60 301 2.0 4.0 0.00 0.00 0.00 75 1014.6
20260506020015 60 301 2.0 5.0 0.00 0.00 0.00 75 1014.6
20260506015014 60 339 3.0 5.0 0.00 0.00 0.00 74 1014.6
20260506014512 60 292 3.0 5.0 0.00 0.00 0.00 75 1014.7
20260506014013 60 309 3.0 7.0 0.00 0.00 0.00 74 1014.7
20260506013513 60 330 3.0 7.0 0.00 0.00 0.00 74 1014.7
20260506013013 60 305 3.0 7.0 0.00 0.00 0.00 74 1014.7
20260506012518 60 291 4.0 8.0 0.00 0.00 0.00 75 1014.6
20260506012513 60 319 3.0 8.0 0.00 0.00 0.00 75 1014.6
20260506012014 60 300 4.0 8.0 0.00 0.00 0.00 75 1014.6
20260506011013 61 292 3.0 7.0 0.00 0.00 0.00 74 1014.5
20260506010519 61 311 2.0 5.0 0.00 0.00 0.00 74 1014.5
20260506010513 61 241 2.0 7.0 0.00 0.00 0.00 74 1014.5
20260506005512 61 9 2.0 5.0 0.00 0.00 0.00 73 1014.5
20260506005012 61 196 2.0 4.0 0.00 0.00 0.00 73 1014.4
20260506004518 61 232 2.0 5.0 0.00 0.00 0.00 72 1014.5
20260506004513 61 232 2.0 5.0 0.00 0.00 0.00 73 1014.5
20260506003521 62 218 2.0 5.0 0.00 0.00 0.00 72 1014.3
20260506003511 62 240 3.0 5.0 0.00 0.00 0.00 72 1014.5
20260506003011 62 246 1.0 4.0 0.00 0.00 0.00 73 1014.3
20260506002625 62 228 1.0 3.0 0.00 0.00 0.00 73 1014.3
20260506001510 62 229 1.0 3.0 0.00 0.00 0.00 71 1014.2
20260506001009 62 228 2.0 4.0 0.00 0.00 0.00 73 1014.2
20260506000508 62 228 2.0 4.0 0.00 0.00 0.00 72 1014.2
20260506000009 62 265 1.0 3.0 0.00 0.00 0.00 72 1014.2
20260505235509 62 265 0.0 2.0 0.00 0.00 0.00 71 1014.1
20260505235008 62 265 1.0 3.0 0.00 0.00 0.00 73 1014.2
20260505234508 62 265 2.0 4.0 0.00 0.00 0.00 73 1014.2
20260505234008 62 266 2.0 4.0 0.00 0.00 0.00 73 1014.2
20260505233510 62 261 2.0 4.0 0.00 0.00 0.00 73 1014.3
20260505233013 61 281 1.0 3.0 0.00 0.00 0.00 71 1014.3
20260505233008 62 261 2.0 4.0 0.00 0.00 0.00 72 1014.3
20260505232009 62 281 1.0 4.0 0.00 0.00 0.00 72 1014.4
20260505231508 62 281 2.0 4.0 0.00 0.00 0.00 72 1014.4
20260505231006 62 281 2.0 4.0 0.00 0.00 0.00 72 1014.3
20260505230506 62 281 2.0 4.0 0.00 0.00 0.00 71 1014.4
20260505230006 62 348 2.0 5.0 0.00 0.00 0.00 71 1014.3
20260505225508 62 75 1.0 5.0 0.00 0.00 0.00 71 1014.4
20260505225007 62 152 1.0 4.0 0.00 0.00 0.00 72 1014.4
20260505224506 61 28 1.0 3.0 0.00 0.00 0.00 73 1014.4
20260505224007 61 28 1.0 3.0 0.00 0.00 0.00 72 1014.4
20260505223507 61 28 1.0 3.0 0.00 0.00 0.00 71 1014.5
20260505223005 61 28 2.0 4.0 0.00 0.00 0.00 72 1014.6
20260505222506 61 28 2.0 4.0 0.00 0.00 0.00 72 1014.5
20260505222005 61 327 2.0 5.0 0.00 0.00 0.00 72 1014.6
20260505221504 61 16 3.0 5.0 0.00 0.00 0.00 72 1014.6
20260505221006 61 13 3.0 7.0 0.00 0.00 0.00 72 1014.7
20260505220511 61 55 2.0 5.0 0.00 0.00 0.00 73 1014.6
20260505220506 61 18 3.0 7.0 0.00 0.00 0.00 72 1014.7
20260505215509 61 25 3.0 6.0 0.00 0.00 0.00 72 1014.7
20260505215504 61 348 3.0 6.0 0.00 0.00 0.00 72 1014.7
20260505214505 61 5 3.0 7.0 0.00 0.00 0.00 72 1014.7
20260505214009 61 34 4.0 9.0 0.00 0.00 0.00 72 1014.9
20260505214005 61 334 4.0 7.0 0.00 0.00 0.00 73 1014.8
20260505213003 61 28 3.0 9.0 0.00 0.00 0.00 72 1014.9
20260505212502 61 15 3.0 8.0 0.00 0.00 0.00 73 1014.9
20260505212003 61 28 3.0 8.0 0.00 0.00 0.00 72 1015.0
20260505211503 61 350 4.0 7.0 0.00 0.00 0.00 72 1014.9
20260505211003 61 49 3.0 7.0 0.00 0.00 0.00 72 1014.8
20260505210503 61 333 2.0 7.0 0.00 0.00 0.00 72 1014.8
20260505210007 62 284 1.0 4.0 0.00 0.00 0.00 74 1014.7
20260505210001 61 295 2.0 7.0 0.00 0.00 0.00 72 1014.8
20260505205008 61 333 1.0 4.0 0.00 0.00 0.00 72 1014.8
20260505205002 61 333 1.0 3.0 0.00 0.00 0.00 72 1014.8
20260505204000 60 333 3.0 8.0 0.00 0.00 0.00 73 1014.8
20260505203500 61 333 3.0 8.0 0.00 0.00 0.00 74 1014.8
20260505202959 60 298 2.0 4.0 0.00 0.00 0.00 75 1014.9
20260505202501 60 275 3.0 7.0 0.00 0.00 0.00 74 1014.8
20260505201959 60 313 2.0 7.0 0.00 0.00 0.00 76 1014.8
20260505201457 60 293 2.0 6.0 0.00 0.00 0.00 75 1014.9